Location: Newark
(49.8348°N, 24.0280°E)
Time: 00:33:04
(UTC+00:00)

Courier 1B - Pass Details

Date: 28 January 2020
Orbit: 962 x 1209 km, 28.3° (Epoch: 24 February)

Event Time Altitude Azimuth Distance (km) Brightness Sun altitude
Exits shadow 02:47:10 12° 179° (S) 2,859 9.8 -31.5°
Drops below altitude 10° 02:49:23 10° 162° (SSE) 3,053 10.2 -31.1°
Sets 02:54:21 0° 135° (SE) 4,060 11.2 -30.3°
